STARLINK-11318, 61252

Orbit data source: Space-Track

STARLINK-11318, 61252 is a payload satellite owned by SpaceX/Seattle (US) in LEO that was launched on Wed, 25 Sep 2024 UTC via an FALCON 9 launch vehicle from the Air Force Western Test Range (AFWTR). Payload-class satellites include a variety of spacecraft equipped with specific instruments for various scientific and technological missions. These include communications satellites like Starlink; space stations such as the ISS; scientific satellites like the Hubble; Earth observation satellites from companies like Planet Labs, Umbra, and HawkEye 360; GPS; miniature CubeSats for education and research; and military/defense satellites.

Loading next visibility...
Identifier
61252, 2024-175K
Orbit
LEO
Country
Flag of USUS
Related business
Manufacturer
SpaceX/Seattle
Mission
Operational Commercial Communications
Bus & Motor
STARLINK V2MD, Unknown motor
Mass
960 kg wet, ~910 kg dry
Launch date (UTC)
2024-09-25 (2 years ago)
Launch vehicle
FALCON 9
Launch site
Air Force Western Test Range (AFWTR)
Object type
Payload
Rocket body
Debris
Shape & HBR
Box + 2 Pan, 18.1 m
Radar Cross Section
36.964 m², Large (>1 m²)

Expand to show TLE details & history
Last TLE update: 2 days ago

TLE from 2 days ago
0 STARLINK-11318
1 61252U 24175K   26262.24811756  .00004333  00000-0  40639-4 0  9996
2 61252  53.1572 182.3345 0001048  70.6051 289.5080 15.69687658114930
Epoch: 2026-09-19T05:57Z
TLE epoch observation values (Epoch: 2026-09-19T05:57:17.357Z)
Latitude
-0.00001°
Longitude
94.85279°
Altitude
360.47 km
Speed
7.694 km/s
True Right ascension
12h 09m 20s
True Declination
0° 00' 00"
Sunlit
Object was in daylight at epoch
Visualization orbit readout
Latitude
Unknown
Longitude
Unknown
Altitude
Unknown
Speed
Unknown
Apparent Right ascension
Unknown
Apparent Declination
Unknown
Sunlit
N/A
Visualization observer readout
Local Sidereal Time
13:42:43
Azimuth
Unknown
Elevation
Unknown
Doppler factor
Unknown
Orbital elements
Apogee altitude
360.758 km
Perigee altitude
359.346 km
Semi-major axis
6,738.189 km
Eccentricity
0.0001
Inclination
53.1572°
RAAN
182.3345°
Arg. of periapsis
70.6051°
True anomaly
289.49668°
Mean anomaly
289.508°
Eccentric anomaly
289.50234°
Mean motion
3.92399 °/min
Orbital period
91.74 mins
BSTAR
0.000040639
Loading maneuver chart data...
Computing Atmospheric mass density...
Loading historical data...
Loading historical data...
Loading historical data...
Loading historical data...
Loading historical data...
Loading historical data...
Loading historical data...

Documentation

Showing up to 5 results
|